#timestamp,LO_Frequency,Hit,StdDev 
1501466415.2,286047002.6,N,1.2
1501466435.1,286046999.9,N,1.2
1501466436.0,286046999.9,N,1.2
1501466455.8,286047002.6,P,0.7
1501466475.7,286047000.6,N,0.8
1501466495.5,286047000.6,N,0.8
1501466515.3,286047000.7,N,0.8
1501466535.2,286046998.7,N,1.1
1501466555.0,286047001.2,N,1.1
1501466555.9,286047001.2,N,1.0
1501466575.8,286047001.0,N,1.0
1501466595.6,286047000.7,N,0.9
1501466615.4,286047001.1,N,0.9
1501466635.3,286047000.4,N,0.8
1501466655.1,286046999.9,N,0.8
1501466675.9,286047000.2,N,0.8
1501466695.7,286047000.3,N,0.8
1501466715.5,286046998.5,N,0.9
1501466735.4,286047001.0,N,0.9
1501466755.2,286047001.1,N,0.9
1501466775.1,286047000.4,N,0.9
1501466776.0,286047000.4,N,0.9
1501466795.8,286046999.8,N,0.9
1501466815.6,286047002.3,N,0.9
1501466835.5,286047000.2,N,0.9
1501466855.3,286047002.3,N,0.9
1501466875.2,286047002.6,N,1.0
1501466895.9,286047002.0,N,1.0
1501466915.7,286047004.4,P,1.8
1501466935.6,286046999.8,N,2.0
1501466955.4,286047002.7,N,1.8
1501466975.2,286047000.6,N,1.7
1501466995.1,286047000.2,N,1.6
1501466996.0,286047000.2,N,1.6
1501467015.8,286047002.7,N,1.5
1501467035.7,286047000.1,N,1.5
1501467055.5,286046999.7,N,1.5
1501467075.3,286047002.2,N,1.5
1501467095.2,286047003.9,N,1.6
1501467115.0,286047002.8,N,1.6
1501467115.9,286047002.8,N,1.5
1501467135.8,286047002.3,N,1.5
1501467155.6,286047002.3,N,1.5
1501467175.4,286047000.9,N,1.4
1501467195.3,286047000.9,N,1.4
1501467215.1,286047000.8,N,1.4
1501467235.9,286047002.6,N,1.4
1501467255.7,286047002.4,N,1.3
1501467275.5,286047000.6,N,1.3
1501467295.4,286047002.5,P,0.4
1501467315.2,286047000.6,N,0.8
1501467335.1,286047000.5,N,0.8
1501467336.0,286047000.5,N,0.8
1501467355.8,286046999.4,N,1.0
1501467375.6,286047001.1,N,0.9
1501467395.5,286047001.1,N,0.9
1501467415.3,286046999.5,N,0.9
1501467435.2,286047001.2,P,0.2
1501467455.9,286046998.7,P,1.1
1501467475.7,286047000.9,N,1.0
1501467495.6,286046998.7,N,1.1
1501467515.4,286046999.5,N,1.0
1501467535.2,286046999.0,N,1.0
1501467555.1,286046999.4,N,1.0
1501467556.0,286046999.4,N,0.9
1501467575.8,286046998.9,N,0.9
1501467595.7,286046998.3,N,0.9
1501467615.5,286046998.9,N,0.9
1501467635.3,286046998.4,N,0.9
1501467655.2,286046998.3,N,0.9
1501467675.0,286047000.6,N,1.0
1501467675.9,286047000.6,N,1.0
1501467695.8,286047001.1,N,1.0
1501467715.6,286047001.2,N,1.1
1501467735.4,286046999.6,N,1.0
1501467755.3,286046999.4,N,1.0
1501467775.1,286046998.6,N,1.0
1501467795.9,286046998.1,N,1.0
1501467815.7,286046998.4,N,1.0
1501467835.5,286047000.8,N,1.0
1501467855.4,286047000.5,N,1.0
1501467875.2,286047000.1,N,1.0
1501467895.1,286046998.2,N,1.0
1501467896.0,286046998.2,N,1.1
1501467915.8,286046999.1,N,1.0
1501467935.6,286046996.6,P,1.4
1501467955.5,286046998.2,N,1.2
1501467975.3,286047000.6,N,1.5
1501467995.2,286047000.7,N,1.5
1501468015.9,286047000.9,N,1.6
1501468035.7,286046998.2,N,1.5
1501468055.6,286047000.6,N,1.5
1501468075.4,286047001.1,N,1.5
1501468095.3,286046998.6,N,1.4
1501468115.1,286047000.2,N,1.4
1501468116.0,286047000.2,N,1.3
1501468135.8,286046999.7,N,1.3
1501468155.7,286047000.5,N,1.3
1501468175.5,286046999.9,N,1.2
1501468195.4,286047002.3,N,1.3
1501468215.2,286047002.1,N,1.4
1501468235.0,286047002.2,N,1.5
1501468235.9,286047002.2,N,1.5
1501468255.8,286047002.5,N,1.5
1501468275.6,286047002.6,N,1.6
1501468295.4,286047002.2,N,1.6
1501468315.3,286047001.7,N,1.6
1501468335.1,286047001.7,N,1.5
1501468355.9,286047004.3,N,1.7
1501468375.7,286047002.7,N,1.7
1501468395.5,286047002.2,N,1.7
1501468415.4,286047001.6,N,1.7
1501468435.2,286047001.6,N,1.6
1501468455.1,286047002.5,N,1.6
1501468456.0,286047002.5,N,1.6
1501468475.8,286047001.8,N,1.4
1501468495.6,286047002.5,N,1.3
1501468515.5,286047002.7,N,1.3
1501468535.3,286047002.3,N,1.3
1501468555.2,286047002.4,N,1.3
1501468575.9,286047002.0,N,1.1
1501468595.7,286047002.1,N,1.1
1501468615.6,286047001.6,N,1.1
1501468635.4,286047002.0,N,0.9
1501468655.2,286047002.8,N,0.9
1501468675.1,286047002.2,N,0.8
1501468676.0,286047002.2,N,0.7
1501468695.8,286047002.5,P,0.2
1501468715.7,286046998.1,P,2.0
1501468735.5,286047001.0,N,1.7
1501468755.3,286047000.4,N,1.6
1501468775.2,286047000.6,N,1.4
1501468795.0,286047000.9,N,1.3
1501468795.9,286047000.9,N,1.2
1501468815.8,286047001.1,N,1.2
1501468835.6,286046999.9,N,1.1
1501468855.4,286047000.2,N,1.1
1501468875.3,286047000.8,N,1.1
1501468895.1,286047001.1,N,1.0
1501468915.9,286047000.0,N,1.0
1501468935.7,286047000.2,N,1.0
1501468955.6,286046999.7,N,1.0
1501468975.4,286047000.1,N,0.9
1501468995.2,286047000.0,N,0.9
1501469015.1,286046999.8,N,0.9
1501469016.0,286046999.8,N,0.9
1501469035.8,286047000.2,N,0.9
1501469055.6,286047000.4,N,0.9
1501469075.5,286047000.6,N,0.9
1501469095.3,286047000.9,N,0.8
1501469115.2,286047000.4,N,0.8
1501469135.0,286046998.7,N,0.9
1501469135.9,286046998.7,N,0.9
1501469155.7,286047000.8,N,0.9
1501469175.6,286046998.8,N,0.9
1501469195.4,286046998.6,N,1.0
1501469215.3,286046999.1,N,0.9
1501469235.1,286046999.0,N,0.8
1501469255.8,286046999.0,N,0.8
1501469275.7,286046999.1,N,0.8
1501469295.5,286046999.3,N,0.8
1501469315.4,286046996.9,P,1.5
1501469335.2,286046997.2,N,1.4
1501469355.0,286046996.8,N,1.3
1501469355.9,286046996.8,N,1.2
1501469375.8,286046997.1,N,1.1
1501469395.6,286046995.0,P,1.2
1501469415.5,286046998.3,N,1.4
1501469435.3,286046998.7,N,1.4
1501469455.1,286046999.4,N,1.5
1501469475.9,286046998.6,N,1.4
1501469495.7,286047001.1,N,1.7
1501469515.6,286046998.7,N,1.6
1501469535.4,286046999.1,N,1.5
1501469555.2,286046999.6,N,1.5
1501469575.1,286046999.6,N,1.5
1501469576.0,286046999.6,N,1.4
1501469595.8,286046996.5,N,1.5
1501469615.7,286046996.8,N,1.5
1501469635.5,286046997.4,N,1.5
1501469655.3,286046996.8,N,1.5
1501469675.2,286046997.2,N,1.5
1501469695.0,286046997.7,N,1.4
1501469695.9,286046997.7,N,1.4
1501469715.8,286046997.8,N,1.4
1501469735.6,286046997.3,N,1.3
1501469755.4,286046997.9,N,1.3
1501469775.3,286046994.9,P,1.6
1501469795.1,286046999.2,N,1.8
1501469815.9,286046999.3,N,1.8
1501469835.7,286046999.2,N,1.7
1501469855.5,286046997.2,N,1.6
1501469875.4,286046999.6,N,1.6
1501469895.2,286046996.8,N,1.5
1501469915.0,286046997.2,N,1.5
1501469916.0,286046997.2,N,1.4
1501469935.8,286046998.0,N,1.3
1501469955.6,286046995.1,P,1.4
1501469975.5,286046996.5,N,1.1
1501469995.3,286046997.0,N,1.0
